This is the latest recevied weather packets stored in our database for station/object E25HA-1. If no packets are shown the sender has not sent any weather packets the latest 10 day(s).
| Time | Temp. | Humidity | Pressure | Rain* | Wind** | Luminosity | Snow |
|---|---|---|---|---|---|---|---|
| 1777804060 | 40.56° C | 67% | 984 hPa | - | - | 1 W/m² | - |
| 1777803738 | 41.11° C | 57% | 984 hPa | - | - | 1 W/m² | - |
| 1777803416 | 41.67° C | 59% | 984 hPa | - | - | 1 W/m² | - |
| 1777803093 | 42.22° C | 56% | 984 hPa | - | - | 1 W/m² | - |
| 1777802771 | 42.78° C | 66% | 984 hPa | - | - | 1 W/m² | - |
| 1777802448 | 42.78° C | 68% | 983 hPa | - | - | 1 W/m² | - |
| 1777802126 | 43.33° C | 73% | 983 hPa | - | - | 2 W/m² | - |
| 1777801804 | 43.33° C | 70% | 983 hPa | - | - | 2 W/m² | - |
| 1777801481 | 43.89° C | 67% | 983 hPa | - | - | 1 W/m² | - |
| 1777801159 | 44.44° C | 69% | 983 hPa | - | - | 2 W/m² | - |
| 1777800856 | 44.44° C | 66% | 983 hPa | - | - | 2 W/m² | - |
| 1777800534 | 44.44° C | 65% | 983 hPa | - | - | 4 W/m² | - |
| 1777800211 | 45° C | 81% | 983 hPa | - | - | 6 W/m² | - |
| 1777799889 | 45° C | 72% | 983 hPa | - | - | 6 W/m² | - |
| 1777799567 | 45° C | 60% | 983 hPa | - | - | 6 W/m² | - |
| 1777799154 | 45° C | 77% | 983 hPa | - | - | 7 W/m² | - |
| 1777798831 | 45° C | 72% | 983 hPa | - | - | 7 W/m² | - |
| 1777798508 | 45.56° C | 68% | 983 hPa | - | - | 4 W/m² | - |
| 1777798186 | 45.56° C | 70% | 983 hPa | - | - | 10 W/m² | - |
| 1777797864 | 45.56° C | 79% | 984 hPa | - | - | 10 W/m² | - |
| 1777797541 | 45.56° C | 76% | 984 hPa | - | - | 11 W/m² | - |
| 1777797219 | 45.56° C | 73% | 984 hPa | - | - | 12 W/m² | - |
| 1777796896 | 45.56° C | 66% | 984 hPa | - | - | 12 W/m² | - |
| 1777796574 | 45.56° C | 87% | 984 hPa | - | - | 12 W/m² | - |
| 1777796251 | 45.56° C | 85% | 984 hPa | - | - | 12 W/m² | - |
* Rain since midnight (hover to see other rain measurements)
** Current wind speed in m/s (hover to see current wind gust speed)